Terug naar catalogus

ARIANE 5 R/B

ActiefHEO
NORAD 40615·ROCKET BODY·🇫🇷 France

Gelanceerd Apr 26, 2015 vanaf Guiana Space Centre

Loading…

Volgende Passages (komende 24 uur)

TLE

VersSource: Space-Track

Epoch: Sep 14, 2026, 14:00 UTC

1 40615U 15022C   26257.58393208  .00006724  00000-0  53507-3 0  9998
2 40615   5.6898  41.9038 6613796   9.3900 358.4587  3.19396797110239

Volg ARIANE 5 R/B in realtime met AllMySat

Download on the App Store